CW9928 Weather Reports


Display with metric or nautical units.
time (UTC)temp
F
wind
direction
speed
MPH
gust
MPH
rain 1hr
in
rain 24hr
in
rain mn
in
humidity
%
barometer
mb
20260905193526 76 83 0.0 5.0 0.00 0.00 0.00 57 1014.9
20260905193104 76 71 1.0 5.0 0.00 0.00 0.00 58 1015.1
20260905192543 76 111 1.0 4.0 0.00 0.00 0.00 60 1015.1
20260905192023 75 142 0.0 7.0 0.00 0.00 0.00 61 1015.0
20260905191503 75 64 2.0 7.0 0.00 0.00 0.00 61 1015.0
20260905191047 75 48 0.0 6.0 0.00 0.00 0.00 64 1015.0
20260905190527 75 48 1.0 6.0 0.00 0.00 0.00 60 1015.1
20260905190111 75 30 0.0 5.0 0.00 0.00 0.00 65 1015.2
20260905185534 75 329 1.0 4.0 0.00 0.00 0.00 64 1015.3
20260905185013 75 320 0.0 5.0 0.00 0.00 0.00 66 1015.4
20260905184558 75 292 0.0 6.0 0.00 0.00 0.00 66 1015.4
20260905184038 74 96 0.0 5.0 0.00 0.00 0.00 65 1015.3
20260905183521 74 356 0.0 5.0 0.00 0.00 0.00 67 1015.4
20260905183118 74 356 0.0 5.0 0.00 0.00 0.00 67 1015.4
20260905182541 74 56 0.0 6.0 0.00 0.00 0.00 68 1015.4
20260905182021 74 51 2.0 6.0 0.00 0.00 0.00 67 1015.4
20260905181502 74 60 1.0 8.0 0.00 0.00 0.00 68 1015.3
20260905181045 73 58 3.0 8.0 0.00 0.00 0.00 69 1015.2
20260905180526 73 90 0.0 6.0 0.00 0.00 0.00 70 1015.2
20260905180109 73 48 1.0 7.0 0.00 0.00 0.00 70 1015.1
20260905175531 73 46 2.0 7.0 0.00 0.00 0.00 69 1015.0
20260905175014 73 52 0.0 5.0 0.00 0.00 0.00 70 1015.1
20260905174555 73 308 1.0 5.0 0.00 0.00 0.00 71 1015.0
20260905174035 72 331 1.0 6.0 0.00 0.00 0.00 71 1015.2
20260905173515 72 282 0.0 6.0 0.00 0.00 0.00 72 1015.1
20260905173059 72 291 0.0 6.0 0.00 0.00 0.00 71 1015.1
20260905172536 72 299 1.0 7.0 0.00 0.00 0.00 70 1015.2
20260905172016 72 65 1.0 7.0 0.00 0.00 0.00 73 1015.2
20260905171601 72 17 1.0 6.0 0.00 0.00 0.00 72 1015.2
20260905171040 72 289 2.0 6.0 0.00 0.00 0.00 73 1015.1
20260905170520 72 43 0.0 5.0 0.00 0.00 0.00 72 1015.0
20260905170105 72 34 1.0 5.0 0.00 0.00 0.00 74 1015.0
20260905165526 72 60 0.0 6.0 0.00 0.00 0.00 73 1015.0
20260905165006 72 21 0.0 5.0 0.00 0.00 0.00 72 1015.0
20260905164552 72 17 1.0 5.0 0.00 0.00 0.00 71 1015.1
20260905164029 72 63 0.0 4.0 0.00 0.00 0.00 73 1015.2
20260905163510 72 63 0.0 5.0 0.00 0.00 0.00 72 1015.2
20260905163056 72 321 1.0 5.0 0.00 0.00 0.00 74 1015.3
20260905162534 72 56 0.0 7.0 0.00 0.00 0.00 74 1015.3
20260905162014 72 48 0.0 2.0 0.00 0.00 0.00 73 1015.3
20260905161558 71 47 0.0 4.0 0.00 0.00 0.00 75 1015.3
20260905161038 71 48 1.0 8.0 0.00 0.00 0.00 74 1015.3
20260905160518 71 38 1.0 8.0 0.00 0.00 0.00 74 1015.3
20260905155526 71 58 1.0 5.0 0.00 0.00 0.00 74 1015.3
20260905155004 71 281 2.0 6.0 0.00 0.00 0.00 74 1015.2
20260905154549 71 67 2.0 6.0 0.00 0.00 0.00 74 1015.2
20260905154030 71 37 1.0 7.0 0.00 0.00 0.00 74 1015.2
20260905153508 70 90 2.0 8.0 0.00 0.00 0.00 74 1015.1
20260905153105 70 90 2.0 8.0 0.00 0.00 0.00 75 1015.2
20260905152533 70 61 2.0 6.0 0.00 0.00 0.00 76 1015.3
20260905152012 70 69 1.0 6.0 0.00 0.00 0.00 78 1015.4
20260905151559 70 69 1.0 6.0 0.00 0.00 0.00 79 1015.4
20260905151035 70 71 1.0 6.0 0.00 0.00 0.00 78 1015.4
20260905150518 70 88 0.0 8.0 0.00 0.00 0.00 78 1015.4
20260905150100 70 88 1.0 8.0 0.00 0.00 0.00 77 1015.4
20260905145522 70 17 2.0 8.0 0.00 0.00 0.00 78 1015.4
20260905145104 70 52 0.0 7.0 0.00 0.00 0.00 79 1015.4
20260905144544 70 356 1.0 4.0 0.00 0.00 0.00 81 1015.3
20260905144025 70 357 0.0 6.0 0.00 0.00 0.00 80 1015.3
20260905143506 69 296 0.0 7.0 0.00 0.00 0.00 81 1015.4
20260905143048 69 58 2.0 6.0 0.00 0.00 0.00 80 1015.4
20260905142528 69 65 0.0 6.0 0.00 0.00 0.00 81 1015.4
20260905142009 69 65 1.0 6.0 0.00 0.00 0.00 81 1015.3
20260905141601 69 63 0.0 4.0 0.00 0.00 0.00 82 1015.4
20260905141035 68 63 0.0 5.0 0.00 0.00 0.00 82 1015.3
20260905140513 68 68 2.0 6.0 0.00 0.00 0.00 82 1015.4
20260905140105 68 68 3.0 6.0 0.00 0.00 0.00 83 1015.4
20260905135518 68 69 1.0 5.0 0.00 0.00 0.00 84 1015.4
20260905135102 67 69 0.0 5.0 0.00 0.00 0.00 85 1015.3
20260905134542 67 70 1.0 5.0 0.00 0.00 0.00 85 1015.3
20260905134022 67 70 0.0 5.0 0.00 0.00 0.00 86 1015.3
20260905133502 66 70 1.0 6.0 0.00 0.00 0.00 88 1015.3
20260905133046 66 71 2.0 6.0 0.00 0.00 0.00 90 1015.5
20260905132526 66 355 0.0 2.0 0.00 0.00 0.00 91 1015.6
20260905132010 65 355 0.0 5.0 0.00 0.00 0.00 92 1015.5
20260905131609 65 355 2.0 5.0 0.00 0.00 0.00 92 1015.5
20260905131030 65 321 0.0 5.0 0.00 0.00 0.00 94 1015.5
20260905130513 64 300 0.0 2.0 0.00 0.00 0.00 94 1015.5
20260905130054 64 300 0.0 4.0 0.00 0.00 0.00 95 1015.5
20260905125517 64 300 0.0 4.0 0.00 0.00 0.00 95 1015.7
20260905125100 63 299 0.0 0.0 0.00 0.00 0.00 95 1015.8
20260905124539 63 299 0.0 0.0 0.00 0.00 0.00 95 1015.8
20260905124023 63 299 0.0 0.0 0.00 0.00 0.00 95 1015.8
20260905123606 63 299 0.0 0.0 0.00 0.00 0.00 95 1015.8
20260905123043 63 299 0.0 0.0 0.00 0.00 0.00 95 1015.8
20260905122524 63 299 0.0 0.0 0.00 0.00 0.00 95 1015.7
20260905122004 62 299 0.0 0.0 0.00 0.00 0.00 95 1015.8
20260905121548 62 299 0.0 0.0 0.00 0.00 0.00 95 1015.8
20260905121028 62 299 0.0 0.0 0.00 0.00 0.00 95 1015.8
20260905120508 61 299 0.0 0.0 0.00 0.00 0.00 95 1015.8
20260905120052 61 299 0.0 0.0 0.00 0.00 0.00 95 1015.7
20260905115515 61 299 0.0 0.0 0.00 0.00 0.00 95 1015.8
20260905115059 61 299 0.0 0.0 0.00 0.00 0.00 95 1015.7
20260905114545 61 299 0.0 0.0 0.00 0.00 0.00 95 1015.6
20260905114019 60 299 0.0 0.0 0.00 0.00 0.00 95 1015.5
20260905113602 60 299 0.0 0.0 0.00 0.00 0.00 95 1015.4
20260905113043 60 299 0.0 0.0 0.00 0.00 0.00 94 1015.2
20260905112523 60 299 0.0 0.0 0.00 0.00 0.00 94 1015.3
20260905112003 60 299 0.0 0.0 0.00 0.00 0.00 94 1015.2
20260905111546 60 299 0.0 0.0 0.00 0.00 0.00 94 1014.9
20260905111026 60 299 0.0 0.0 0.00 0.00 0.00 94 1014.9
20260905110505 60 299 0.0 0.0 0.00 0.00 0.00 94 1014.9
20260905110050 60 299 0.0 0.0 0.00 0.00 0.00 94 1014.9
20260905105512 60 299 0.0 0.0 0.00 0.00 0.00 94 1014.9
20260905105056 60 299 0.0 0.0 0.00 0.00 0.00 94 1014.9
20260905104539 61 299 0.0 0.0 0.00 0.00 0.00 94 1014.9
20260905104016 61 299 0.0 0.0 0.00 0.00 0.00 94 1014.8
20260905103600 61 299 0.0 0.0 0.00 0.00 0.00 94 1014.9
20260905103040 61 299 0.0 0.0 0.00 0.00 0.00 94 1014.8
20260905102520 61 299 0.0 0.0 0.00 0.00 0.00 94 1014.9
20260905102104 61 299 0.0 0.0 0.00 0.00 0.00 94 1014.8
20260905101544 61 299 0.0 0.0 0.00 0.00 0.00 94 1014.9
20260905101023 61 299 0.0 0.0 0.00 0.00 0.00 94 1015.0
20260905100504 61 299 0.0 0.0 0.00 0.00 0.00 94 1014.8
20260905095511 61 299 0.0 0.0 0.00 0.00 0.00 94 1014.7
20260905095054 61 299 0.0 0.0 0.00 0.00 0.00 94 1014.7
20260905094533 61 299 0.0 0.0 0.00 0.00 0.00 94 1014.6
20260905094015 61 299 0.0 0.0 0.00 0.00 0.00 94 1014.6
20260905093558 61 299 0.0 0.0 0.00 0.00 0.00 94 1014.7
20260905093040 61 299 0.0 0.0 0.00 0.00 0.00 94 1014.7
20260905092517 61 299 0.0 0.0 0.00 0.00 0.00 94 1014.6
20260905092101 61 299 0.0 0.0 0.00 0.00 0.00 94 1014.5
20260905091544 62 299 0.0 0.0 0.00 0.00 0.00 94 1014.4
20260905091021 62 299 0.0 0.0 0.00 0.00 0.00 94 1014.4
20260905090504 62 299 0.0 0.0 0.00 0.00 0.00 93 1014.3
20260905090104 62 299 0.0 0.0 0.00 0.00 0.00 93 1014.1
20260905085508 62 299 0.0 0.0 0.00 0.00 0.00 93 1014.0
20260905085056 62 299 0.0 0.0 0.00 0.00 0.00 93 1014.1
20260905084531 62 299 0.0 0.0 0.00 0.00 0.00 93 1014.2
20260905084017 62 299 0.0 0.0 0.00 0.00 0.00 93 1014.0
20260905083556 62 299 0.0 0.0 0.00 0.00 0.00 93 1014.1
20260905083045 62 299 0.0 0.0 0.00 0.00 0.00 93 1014.1
20260905082515 62 299 0.0 0.0 0.00 0.00 0.00 93 1014.1
20260905082100 62 299 0.0 0.0 0.00 0.00 0.00 93 1014.0
20260905081547 62 299 0.0 0.0 0.00 0.00 0.00 93 1014.0
20260905081021 62 299 0.0 0.0 0.00 0.00 0.00 93 1013.9
20260905080603 62 299 0.0 0.0 0.00 0.00 0.00 93 1013.9
20260905080050 62 299 0.0 0.0 0.00 0.00 0.00 92 1014.0
20260905075508 62 299 0.0 0.0 0.00 0.00 0.00 93 1014.1
20260905075049 63 299 0.0 0.0 0.00 0.00 0.00 93 1014.0
20260905074529 63 299 0.0 0.0 0.00 0.00 0.00 93 1014.0
20260905074008 63 299 0.0 0.0 0.00 0.00 0.00 92 1014.1
20260905073555 63 299 0.0 0.0 0.00 0.00 0.00 92 1014.2
20260905073036 63 299 0.0 0.0 0.00 0.00 0.00 92 1014.2
20260905072513 63 299 0.0 0.0 0.00 0.00 0.00 92 1014.1
20260905072056 63 299 0.0 0.0 0.00 0.00 0.00 92 1014.1
20260905071539 63 299 0.0 0.0 0.00 0.00 0.00 92 1014.1
20260905071018 64 299 0.0 0.0 0.00 0.00 0.00 92 1014.1
20260905070600 64 299 0.0 0.0 0.00 0.00 0.00 92 1014.1
20260905070041 64 299 0.0 0.0 0.00 0.00 0.00 92 1014.3
20260905065502 64 299 0.0 0.0 0.00 0.00 0.00 92 1014.4
20260905065048 64 299 0.0 0.0 0.00 0.00 0.00 92 1014.3
20260905064526 64 299 0.0 0.0 0.00 0.00 0.00 92 1014.4
20260905064008 64 299 0.0 0.0 0.00 0.00 0.00 92 1014.4
20260905063549 64 299 0.0 0.0 0.00 0.00 0.00 92 1014.5
20260905063030 64 299 0.0 0.0 0.00 0.00 0.00 92 1014.5
20260905062511 64 299 0.0 0.0 0.00 0.00 0.00 92 1014.5
20260905062053 64 299 0.0 0.0 0.00 0.00 0.00 92 1014.6
20260905061533 64 299 0.0 0.0 0.00 0.00 0.00 92 1014.7
20260905061014 64 299 0.0 0.0 0.00 0.00 0.00 92 1014.6
20260905060557 64 299 0.0 0.0 0.00 0.00 0.00 92 1014.6
20260905060019 64 299 0.0 0.0 0.00 0.00 0.00 92 1014.7
20260905055604 64 299 0.0 0.0 0.00 0.00 0.00 92 1014.7
20260905055042 64 299 0.0 0.0 0.00 0.00 0.00 92 1014.7
20260905054534 64 299 0.0 0.0 0.00 0.00 0.00 91 1014.7
20260905054005 64 299 0.0 0.0 0.00 0.00 0.00 91 1014.7
20260905053546 64 299 0.0 0.0 0.00 0.00 0.00 91 1014.8
20260905053032 64 299 0.0 0.0 0.00 0.00 0.00 91 1014.8
20260905052506 65 299 0.0 0.0 0.00 0.00 0.00 91 1014.8
20260905052051 65 299 0.0 0.0 0.00 0.00 0.00 91 1014.8
20260905051536 65 299 0.0 0.0 0.00 0.00 0.00 91 1014.8
20260905051010 65 299 0.0 0.0 0.00 0.00 0.00 91 1014.8
20260905050554 65 299 0.0 0.0 0.00 0.00 0.00 91 1014.8
20260905050035 65 299 0.0 0.0 0.00 0.00 0.00 91 1014.8
20260905045604 65 299 0.0 0.0 0.00 0.00 0.00 91 1014.9
20260905045040 65 299 0.0 0.0 0.00 0.00 0.00 91 1014.9
20260905044528 65 299 0.0 0.0 0.00 0.00 0.00 90 1014.7
20260905044104 66 299 0.0 0.0 0.00 0.00 0.00 90 1014.8
20260905043545 66 299 0.0 0.0 0.00 0.00 0.00 90 1014.8
20260905043025 66 299 0.0 0.0 0.00 0.00 0.00 90 1014.7
20260905042506 66 299 0.0 0.0 0.00 0.00 0.00 90 1014.9
20260905042048 66 299 0.0 0.0 0.00 0.00 0.00 90 1014.9
20260905041529 66 299 0.0 0.0 0.00 0.00 0.00 90 1014.8
20260905041008 66 299 0.0 0.0 0.00 0.00 0.00 90 1014.6
20260905040553 66 299 0.0 0.0 0.00 0.00 0.00 90 1014.7
20260905040034 66 299 0.0 0.0 0.00 0.00 0.00 90 1014.8
20260905035558 66 299 0.0 0.0 0.00 0.00 0.00 90 1014.8
20260905035038 66 299 0.0 0.0 0.00 0.00 0.00 90 1014.8
20260905034518 66 299 0.0 0.0 0.00 0.00 0.00 90 1014.6
20260905034105 67 299 0.0 0.0 0.00 0.00 0.00 90 1014.8
20260905033543 67 299 0.0 0.0 0.00 0.00 0.00 90 1014.6
20260905033022 67 299 0.0 0.0 0.00 0.00 0.00 90 1014.6
20260905032502 67 299 0.0 0.0 0.00 0.00 0.00 90 1014.5
20260905032046 67 299 0.0 0.0 0.00 0.00 0.00 90 1014.6
20260905031531 67 299 0.0 0.0 0.00 0.00 0.00 90 1014.6
20260905031006 67 299 0.0 0.0 0.00 0.00 0.00 89 1014.5
20260905030550 67 299 0.0 0.0 0.00 0.00 0.00 89 1014.5
20260905030032 67 299 0.0 0.0 0.00 0.00 0.00 89 1014.6
20260905025558 67 299 0.0 0.0 0.00 0.00 0.00 89 1014.5
20260905025036 67 299 0.0 0.0 0.00 0.00 0.00 89 1014.5
20260905024516 67 299 0.0 0.0 0.00 0.00 0.00 89 1014.5
20260905024100 67 299 0.0 0.0 0.00 0.00 0.00 89 1014.5
20260905023544 68 299 0.0 0.0 0.00 0.00 0.00 88 1014.6
20260905023027 68 299 0.0 0.0 0.00 0.00 0.00 88 1014.6
20260905022604 68 299 0.0 0.0 0.00 0.00 0.00 88 1014.6
20260905022044 68 299 0.0 0.0 0.00 0.00 0.00 87 1014.6
20260905021525 68 299 0.0 0.0 0.00 0.00 0.00 86 1014.5
20260905021004 68 299 0.0 0.0 0.00 0.00 0.00 86 1014.6
20260905020552 68 299 0.0 0.0 0.00 0.00 0.00 86 1014.5
20260905020028 68 299 0.0 0.0 0.00 0.00 0.00 85 1014.5
20260905015554 69 299 0.0 0.0 0.00 0.00 0.00 85 1014.6
20260905015033 69 299 0.0 0.0 0.00 0.00 0.00 85 1014.5
20260905014515 69 299 0.0 0.0 0.00 0.00 0.00 84 1014.5
20260905014058 69 299 0.0 0.0 0.00 0.00 0.00 84 1014.5
20260905013537 69 299 0.0 0.0 0.00 0.00 0.00 84 1014.5
20260905013018 70 299 0.0 0.0 0.00 0.00 0.00 84 1014.6
20260905012603 70 299 0.0 0.0 0.00 0.00 0.00 84 1014.6
20260905012041 70 299 0.0 0.0 0.00 0.00 0.00 83 1014.6
20260905011527 70 299 0.0 0.0 0.00 0.00 0.00 83 1014.6
20260905011002 70 299 0.0 0.0 0.00 0.00 0.00 83 1014.6
20260905010546 70 299 0.0 0.0 0.00 0.00 0.00 82 1014.8
20260905010008 70 299 0.0 0.0 0.00 0.00 0.00 82 1014.7
20260905005555 70 299 0.0 0.0 0.00 0.00 0.00 82 1014.7
20260905005033 71 299 0.0 0.0 0.00 0.00 0.00 82 1014.7
20260905004514 71 299 0.0 0.0 0.00 0.00 0.00 81 1014.5
20260905004056 71 299 0.0 0.0 0.00 0.00 0.00 81 1014.5
20260905003536 71 299 0.0 0.0 0.00 0.00 0.00 80 1014.5
20260905003028 71 299 0.0 0.0 0.00 0.00 0.00 80 1014.5
20260905002559 71 299 0.0 0.0 0.00 0.00 0.00 80 1014.4
20260905002040 71 299 0.0 0.0 0.00 0.00 0.00 79 1014.3
20260905001520 71 299 0.0 0.0 0.00 0.00 0.00 79 1014.3
20260905001104 71 299 0.0 0.0 0.00 0.00 0.00 77 1014.2
20260905000548 71 299 0.0 0.0 0.00 0.00 0.00 76 1014.1
20260905000005 72 299 0.0 0.0 0.00 0.00 0.00 76 1013.8
20260904235548 72 299 0.0 0.0 0.00 0.00 0.00 76 1013.8
20260904235029 72 299 0.0 0.0 0.00 0.00 0.00 76 1013.9
20260904234510 72 299 0.0 0.0 0.00 0.00 0.00 75 1014.0
20260904234053 72 299 0.0 0.0 0.00 0.00 0.00 75 1013.8
20260904233533 73 299 0.0 0.0 0.00 0.00 0.00 75 1013.9
20260904233013 73 299 0.0 0.0 0.00 0.00 0.00 74 1013.9
20260904232557 73 299 0.0 0.0 0.00 0.00 0.00 73 1013.9
20260904232041 73 299 0.0 0.0 0.00 0.00 0.00 72 1013.9
20260904231522 73 299 0.0 0.0 0.00 0.00 0.00 72 1014.0
20260904231101 73 299 0.0 0.0 0.00 0.00 0.00 72 1014.0
20260904230541 73 299 0.0 0.0 0.00 0.00 0.00 74 1013.9
20260904230007 74 299 0.0 0.0 0.00 0.00 0.00 73 1014.0
20260904225547 74 299 0.0 0.0 0.00 0.00 0.00 72 1013.9
20260904225026 74 299 0.0 0.0 0.00 0.00 0.00 72 1013.9
20260904224507 74 299 0.0 2.0 0.00 0.00 0.00 72 1013.8
20260904224054 74 299 0.0 2.0 0.00 0.00 0.00 72 1013.9
20260904223531 74 299 0.0 0.0 0.00 0.00 0.00 73 1013.8
20260904223011 74 300 0.0 0.0 0.00 0.00 0.00 73 1013.8
20260904222554 74 299 0.0 0.0 0.00 0.00 0.00 73 1013.7
20260904222038 74 299 0.0 0.0 0.00 0.00 0.00 73 1013.4
20260904221515 75 299 0.0 0.0 0.00 0.00 0.00 73 1013.4
20260904221100 75 299 0.0 0.0 0.00 0.00 0.00 72 1013.4
20260904220542 75 299 0.0 1.0 0.00 0.00 0.00 73 1013.4
20260904220001 75 299 0.0 0.0 0.00 0.00 0.00 74 1013.2
20260904215544 75 299 0.0 0.0 0.00 0.00 0.00 74 1013.2
20260904215026 75 299 0.0 0.0 0.00 0.00 0.00 75 1013.1
20260904214505 75 299 0.0 0.0 0.00 0.00 0.00 75 1013.0
20260904214049 75 299 0.0 0.0 0.00 0.00 0.00 74 1013.0
20260904213529 75 300 0.0 0.0 0.00 0.00 0.00 73 1012.9
20260904213009 75 299 0.0 0.0 0.00 0.00 0.00 73 1013.0
20260904212553 75 299 0.0 0.0 0.00 0.00 0.00 75 1013.0
20260904212032 74 299 0.0 0.0 0.00 0.00 0.00 74 1013.1
20260904211513 74 299 0.0 0.0 0.00 0.00 0.00 76 1013.2
20260904211059 74 299 0.0 0.0 0.00 0.00 0.00 77 1013.2
20260904210537 74 299 0.0 0.0 0.00 0.00 0.00 76 1013.3
20260904210122 74 300 0.0 0.0 0.00 0.00 0.00 74 1013.4
20260904205543 74 299 0.0 0.0 0.00 0.00 0.00 73 1013.5
20260904205022 74 299 0.0 0.0 0.00 0.00 0.00 74 1013.6
20260904204502 74 299 0.0 0.0 0.00 0.00 0.00 74 1013.6
20260904204046 74 299 0.0 0.0 0.00 0.00 0.00 73 1013.7
20260904203526 74 299 0.0 0.0 0.00 0.00 0.00 73 1013.6
20260904203006 74 299 0.0 0.0 0.00 0.00 0.00 73 1013.6
20260904202553 74 299 0.0 0.0 0.00 0.00 0.00 73 1013.7
20260904202030 74 299 0.0 0.0 0.00 0.00 0.00 73 1013.9
20260904201509 74 299 0.0 0.0 0.00 0.00 0.00 72 1013.7
20260904201053 74 299 0.0 0.0 0.00 0.00 0.00 72 1013.7
20260904200535 74 300 0.0 0.0 0.00 0.00 0.00 72 1013.8
20260904200119 74 300 0.0 0.0 0.00 0.00 0.00 72 1014.0
20260904195542 74 300 0.0 1.0 0.00 0.00 0.00 70 1014.1
20260904195019 74 300 0.0 1.0 0.00 0.00 0.00 70 1014.0
20260904194610 74 299 0.0 0.0 0.00 0.00 0.00 70 1013.9
20260904194044 74 299 0.0 0.0 0.00 0.00 0.00 69 1014.1